ONEWEB-0229 (48779 NORAD) Tracking and Keplerian Element Data

This shows tracking and keplerian element data for the satellite.

Feedback or suggestion? Click here.




ElementValue
Catalog48779
NameONEWEB-0229
Epoch Orbit188
Epoch Day170.58334491
Epoch Year2021
RAAN268.8646
Inclination87.4087
Eccentricity0.0006073
Argument of Perigee170.8511
Mean Anonmoly339.7952
Mean Motion15.34731576
Decay Rate-0.00904211
L11 48779U 21045N 21170.58334491 -.00904211 00000-0 -29293-1 0 9990
L22 48779 87.4087 268.8646 0006073 170.8511 339.7952 15.34731576 1887

Live tracking and technical data element details for ONEWEB-0229 (NORAD 48779). ONEWEB-0229 can be tracked NOW for your location showing map with azimuth and elevation plus other details from your city location.

Track the satellite on the map from your city or location and see movement details for azimuth, elevation, latitude, longitude, range, height, and movement on the map or in text.







IsCatalogInMostPopularTable: catalog: 48779, numindb: 6
Update: records affected: 1



GetName: 48779 ONEWEB-0229

Hit Count: updated at: Mon, 21 Jun 2021 04:28:59 GMT